Time,TemperatureF,DewpointF,PressureIn,WindDirection,WindDirectionDegrees,WindSpeedMPH,WindSpeedGustMPH,Humidity,HourlyPrecipIn,Conditions,Clouds,dailyrainin,SolarRadiationWatts/m^2,SoftwareType,DateUTC
2013-07-03 00:14:00,79.5,74.0,30.10,ESE,121,9.0,-999.0,82,-99.99,,,0.01,0,weatherlink.com 1.10,2013-07-03 04:14:00,
2013-07-03 00:29:00,76.4,73.0,30.10,SE,134,12.0,-999.0,88,-99.99,,,0.13,0,weatherlink.com 1.10,2013-07-03 04:29:00,
2013-07-03 00:44:00,77.3,75.0,30.08,SSE,148,9.0,-999.0,91,-99.99,,,0.14,0,weatherlink.com 1.10,2013-07-03 04:44:00,
2013-07-03 00:59:00,77.3,75.0,30.07,ESE,123,6.0,-999.0,91,-99.99,,,0.15,0,weatherlink.com 1.10,2013-07-03 04:59:00,
2013-07-03 01:14:00,76.7,73.0,30.06,SE,128,6.0,-999.0,89,-99.99,,,0.15,0,weatherlink.com 1.10,2013-07-03 05:14:00,
2013-07-03 01:29:00,77.6,74.0,30.06,SE,140,9.0,-999.0,88,-99.99,,,0.15,0,weatherlink.com 1.10,2013-07-03 05:29:00,
2013-07-03 01:44:00,78.2,74.0,30.06,SE,138,10.0,-999.0,88,-99.99,,,0.15,0,weatherlink.com 1.10,2013-07-03 05:44:00,
2013-07-03 01:59:00,78.6,75.0,30.05,SE,146,4.0,-999.0,89,-99.99,,,0.15,0,weatherlink.com 1.10,2013-07-03 05:59:00,
2013-07-03 02:14:00,78.4,74.0,30.05,SE,132,6.0,-999.0,87,-99.99,,,0.15,0,weatherlink.com 1.10,2013-07-03 06:14:00,
2013-07-03 02:29:00,79.3,75.0,30.04,SE,126,5.0,-999.0,86,-99.99,,,0.15,0,weatherlink.com 1.10,2013-07-03 06:29:00,
2013-07-03 02:44:00,79.5,75.0,30.04,SE,130,1.0,-999.0,86,-99.99,,,0.15,0,weatherlink.com 1.10,2013-07-03 06:44:00,
2013-07-03 03:14:00,80.0,76.0,30.04,ESE,123,14.0,-999.0,86,-99.99,,,0.15,0,weatherlink.com 1.10,2013-07-03 07:14:00,
2013-07-03 03:44:00,80.3,76.0,30.04,ESE,109,5.0,-999.0,87,-99.99,,,0.15,0,weatherlink.com 1.10,2013-07-03 07:44:00,
2013-07-03 03:59:00,80.3,76.0,30.03,SE,134,7.0,-999.0,87,-99.99,,,0.15,0,weatherlink.com 1.10,2013-07-03 07:59:00,
2013-07-03 04:14:00,80.3,76.0,30.03,ESE,107,8.0,-999.0,87,-99.99,,,0.15,0,weatherlink.com 1.10,2013-07-03 08:14:00,
2013-07-03 04:29:00,80.6,77.0,30.03,ESE,115,12.0,-999.0,88,-99.99,,,0.15,0,weatherlink.com 1.10,2013-07-03 08:29:00,
2013-07-03 04:44:00,80.6,77.0,30.04,ESE,103,7.0,-999.0,87,-99.99,,,0.15,0,weatherlink.com 1.10,2013-07-03 08:44:00,
2013-07-03 04:59:00,80.5,76.0,30.04,East,98,8.0,-999.0,86,-99.99,,,0.15,0,weatherlink.com 1.10,2013-07-03 08:59:00,
2013-07-03 05:14:00,80.7,77.0,30.04,ESE,123,13.0,-999.0,87,-99.99,,,0.15,0,weatherlink.com 1.10,2013-07-03 09:14:00,
2013-07-03 05:29:00,80.9,77.0,30.04,ESE,102,9.0,-999.0,88,-99.99,,,0.15,0,weatherlink.com 1.10,2013-07-03 09:29:00,
2013-07-03 05:44:00,80.7,77.0,30.04,ESE,103,6.0,-999.0,88,-99.99,,,0.15,0,weatherlink.com 1.10,2013-07-03 09:44:00,
2013-07-03 05:59:00,80.9,77.0,30.04,SE,126,2.0,-999.0,87,-99.99,,,0.15,0,weatherlink.com 1.10,2013-07-03 09:59:00,
2013-07-03 06:14:00,81.1,77.0,30.04,ESE,117,7.0,-999.0,86,-99.99,,,0.15,0,weatherlink.com 1.10,2013-07-03 10:14:00,
2013-07-03 06:44:00,81.3,76.0,30.04,ESE,119,7.0,-999.0,84,-99.99,,,0.15,9,weatherlink.com 1.10,2013-07-03 10:44:00,
2013-07-03 06:59:00,81.3,77.0,30.04,East,101,6.0,-999.0,85,-99.99,,,0.15,25,weatherlink.com 1.10,2013-07-03 10:59:00,
2013-07-03 07:14:00,81.4,77.0,30.05,ESE,119,15.0,-999.0,87,-99.99,,,0.15,33,weatherlink.com 1.10,2013-07-03 11:14:00,
2013-07-03 07:30:00,81.4,77.0,30.05,SE,141,6.0,-999.0,86,-99.99,,,0.15,32,weatherlink.com 1.10,2013-07-03 11:30:00,
2013-07-03 07:45:00,81.6,77.0,30.06,SE,125,7.0,-999.0,87,-99.99,,,0.15,39,weatherlink.com 1.10,2013-07-03 11:45:00,
2013-07-03 08:00:00,81.9,77.0,30.06,SE,127,8.0,-999.0,86,-99.99,,,0.15,77,weatherlink.com 1.10,2013-07-03 12:00:00,
2013-07-03 08:15:00,81.8,77.0,30.06,SE,131,13.0,-999.0,84,-99.99,,,0.15,100,weatherlink.com 1.10,2013-07-03 12:15:00,
2013-07-03 08:30:00,82.4,78.0,30.07,SSE,152,11.0,-999.0,85,-99.99,,,0.15,128,weatherlink.com 1.10,2013-07-03 12:30:00,
2013-07-03 08:45:00,82.5,77.0,30.07,SE,130,13.0,-999.0,84,-99.99,,,0.15,142,weatherlink.com 1.10,2013-07-03 12:45:00,
2013-07-03 09:00:00,82.5,78.0,30.07,SE,132,7.0,-999.0,85,-99.99,,,0.15,172,weatherlink.com 1.10,2013-07-03 13:00:00,
2013-07-03 09:15:00,83.1,78.0,30.07,SE,125,8.0,-999.0,84,-99.99,,,0.15,410,weatherlink.com 1.10,2013-07-03 13:15:00,
2013-07-03 09:30:00,83.1,78.0,30.07,SSE,147,10.0,-999.0,84,-99.99,,,0.15,183,weatherlink.com 1.10,2013-07-03 13:30:00,
2013-07-03 09:45:00,83.0,78.0,30.07,ESE,115,7.0,-999.0,84,-99.99,,,0.15,195,weatherlink.com 1.10,2013-07-03 13:45:00,
2013-07-03 10:00:00,83.0,77.0,30.08,SE,131,5.0,-999.0,83,-99.99,,,0.15,244,weatherlink.com 1.10,2013-07-03 14:00:00,
2013-07-03 10:15:00,83.5,78.0,30.08,SE,126,11.0,-999.0,82,-99.99,,,0.15,396,weatherlink.com 1.10,2013-07-03 14:15:00,
2013-07-03 10:30:00,83.9,78.0,30.08,SE,126,6.0,-999.0,83,-99.99,,,0.15,418,weatherlink.com 1.10,2013-07-03 14:30:00,
2013-07-03 10:46:00,84.2,78.0,30.09,ESE,120,12.0,-999.0,81,-99.99,,,0.15,443,weatherlink.com 1.10,2013-07-03 14:46:00,
2013-07-03 11:00:00,83.9,78.0,30.09,ESE,123,14.0,-999.0,82,-99.99,,,0.15,397,weatherlink.com 1.10,2013-07-03 15:00:00,
2013-07-03 11:15:00,84.2,78.0,30.09,SE,128,9.0,-999.0,81,-99.99,,,0.15,471,weatherlink.com 1.10,2013-07-03 15:15:00,
2013-07-03 11:30:00,84.1,77.0,30.09,ESE,114,5.0,-999.0,80,-99.99,,,0.15,390,weatherlink.com 1.10,2013-07-03 15:30:00,
2013-07-03 11:45:00,84.3,78.0,30.10,ESE,111,13.0,-999.0,81,-99.99,,,0.15,905,weatherlink.com 1.10,2013-07-03 15:45:00,
2013-07-03 12:00:00,85.0,78.0,30.11,ESE,118,14.0,-999.0,80,-99.99,,,0.15,745,weatherlink.com 1.10,2013-07-03 16:00:00,
2013-07-03 12:15:00,85.5,79.0,30.11,ESE,111,11.0,-999.0,80,-99.99,,,0.15,520,weatherlink.com 1.10,2013-07-03 16:15:00,
2013-07-03 12:30:00,85.7,79.0,30.11,SE,128,15.0,-999.0,79,-99.99,,,0.15,512,weatherlink.com 1.10,2013-07-03 16:30:00,
2013-07-03 12:45:00,85.5,78.0,30.10,SE,126,15.0,-999.0,78,-99.99,,,0.15,418,weatherlink.com 1.10,2013-07-03 16:45:00,
2013-07-03 13:00:00,85.5,78.0,30.10,SE,125,5.0,-999.0,79,-99.99,,,0.15,550,weatherlink.com 1.10,2013-07-03 17:00:00,
2013-07-03 13:45:00,85.6,78.0,30.09,SE,126,12.0,-999.0,77,-99.99,,,0.15,928,weatherlink.com 1.10,2013-07-03 17:45:00,
2013-07-03 14:00:00,86.1,78.0,30.08,ESE,119,7.0,-999.0,77,-99.99,,,0.15,694,weatherlink.com 1.10,2013-07-03 18:00:00,
2013-07-03 14:15:00,85.4,78.0,30.07,SE,136,7.0,-999.0,78,-99.99,,,0.15,504,weatherlink.com 1.10,2013-07-03 18:15:00,
2013-07-03 14:30:00,85.8,79.0,30.07,ESE,111,13.0,-999.0,79,-99.99,,,0.15,1065,weatherlink.com 1.10,2013-07-03 18:30:00,
2013-07-03 14:45:00,86.1,78.0,30.07,SE,135,10.0,-999.0,76,-99.99,,,0.15,1049,weatherlink.com 1.10,2013-07-03 18:45:00,
2013-07-03 15:30:00,85.2,78.0,30.06,SE,139,8.0,-999.0,78,-99.99,,,0.15,513,weatherlink.com 1.10,2013-07-03 19:30:00,
2013-07-03 15:45:00,85.2,78.0,30.05,SE,136,7.0,-999.0,80,-99.99,,,0.15,475,weatherlink.com 1.10,2013-07-03 19:45:00,
2013-07-03 16:00:00,84.5,77.0,30.04,SE,128,11.0,-999.0,79,-99.99,,,0.15,323,weatherlink.com 1.10,2013-07-03 20:00:00,
2013-07-03 16:15:00,84.6,78.0,30.04,SE,132,5.0,-999.0,80,-99.99,,,0.15,292,weatherlink.com 1.10,2013-07-03 20:15:00,
2013-07-03 16:45:00,84.3,78.0,30.04,SE,130,17.0,-999.0,81,-99.99,,,0.15,244,weatherlink.com 1.10,2013-07-03 20:45:00,
2013-07-03 17:00:00,84.4,78.0,30.05,SE,130,15.0,-999.0,81,-99.99,,,0.15,246,weatherlink.com 1.10,2013-07-03 21:00:00,
2013-07-03 17:30:00,82.8,74.0,30.05,SE,139,18.0,-999.0,75,-99.99,,,0.15,322,weatherlink.com 1.10,2013-07-03 21:30:00,
2013-07-03 17:45:00,82.9,76.0,30.05,ESE,104,12.0,-999.0,80,-99.99,,,0.15,352,weatherlink.com 1.10,2013-07-03 21:45:00,
2013-07-03 18:00:00,83.6,76.0,30.04,SE,136,11.0,-999.0,78,-99.99,,,0.15,345,weatherlink.com 1.10,2013-07-03 22:00:00,
2013-07-03 18:15:00,83.6,76.0,30.05,SSE,148,6.0,-999.0,77,-99.99,,,0.15,336,weatherlink.com 1.10,2013-07-03 22:15:00,
2013-07-03 18:31:00,83.8,77.0,30.05,SE,142,4.0,-999.0,79,-99.99,,,0.15,232,weatherlink.com 1.10,2013-07-03 22:31:00,
2013-07-03 18:45:00,83.7,78.0,30.05,SE,142,4.0,-999.0,82,-99.99,,,0.15,121,weatherlink.com 1.10,2013-07-03 22:45:00,
2013-07-03 19:00:00,82.9,76.0,30.05,SSE,148,6.0,-999.0,79,-99.99,,,0.15,70,weatherlink.com 1.10,2013-07-03 23:00:00,
2013-07-03 19:15:00,83.4,77.0,30.06,SSE,153,6.0,-999.0,82,-99.99,,,0.15,53,weatherlink.com 1.10,2013-07-03 23:15:00,
2013-07-03 19:30:00,83.6,78.0,30.06,SE,132,6.0,-999.0,83,-99.99,,,0.15,40,weatherlink.com 1.10,2013-07-03 23:30:00,
2013-07-03 19:46:00,83.8,79.0,30.07,SE,128,8.0,-999.0,84,-99.99,,,0.15,25,weatherlink.com 1.10,2013-07-03 23:46:00,
2013-07-03 20:00:00,83.8,79.0,30.07,SE,131,4.0,-999.0,84,-99.99,,,0.15,11,weatherlink.com 1.10,2013-07-04 00:00:00,
2013-07-03 20:15:00,82.9,77.0,30.07,ESE,109,11.0,-999.0,82,-99.99,,,0.15,0,weatherlink.com 1.10,2013-07-04 00:15:00,
2013-07-03 20:30:00,83.4,77.0,30.07,SE,132,8.0,-999.0,82,-99.99,,,0.15,0,weatherlink.com 1.10,2013-07-04 00:30:00,
2013-07-03 20:45:00,82.1,76.0,30.07,SSE,165,4.0,-999.0,81,-99.99,,,0.15,0,weatherlink.com 1.10,2013-07-04 00:45:00,
2013-07-03 21:01:00,81.7,77.0,30.08,South,176,1.0,-999.0,84,-99.99,,,0.15,0,weatherlink.com 1.10,2013-07-04 01:01:00,
2013-07-03 21:46:00,83.0,78.0,30.08,SE,138,8.0,-999.0,85,-99.99,,,0.15,0,weatherlink.com 1.10,2013-07-04 01:46:00,
2013-07-03 22:01:00,83.2,78.0,30.09,SE,124,6.0,-999.0,85,-99.99,,,0.15,0,weatherlink.com 1.10,2013-07-04 02:01:00,
2013-07-03 22:16:00,83.0,77.0,30.10,SE,140,7.0,-999.0,83,-99.99,,,0.15,0,weatherlink.com 1.10,2013-07-04 02:16:00,
2013-07-03 22:31:00,83.3,78.0,30.10,SE,141,4.0,-999.0,83,-99.99,,,0.15,0,weatherlink.com 1.10,2013-07-04 02:31:00,
2013-07-03 22:46:00,83.5,78.0,30.10,SE,138,6.0,-999.0,82,-99.99,,,0.15,0,weatherlink.com 1.10,2013-07-04 02:46:00,
2013-07-03 23:01:00,83.5,78.0,30.11,SE,136,5.0,-999.0,82,-99.99,,,0.15,0,weatherlink.com 1.10,2013-07-04 03:01:00,
2013-07-03 23:16:00,83.5,78.0,30.11,SE,126,8.0,-999.0,82,-99.99,,,0.15,0,weatherlink.com 1.10,2013-07-04 03:16:00,
2013-07-03 23:31:00,83.4,77.0,30.11,ESE,119,7.0,-999.0,82,-99.99,,,0.15,0,weatherlink.com 1.10,2013-07-04 03:31:00,
2013-07-03 23:46:00,83.4,77.0,30.10,SE,146,4.0,-999.0,80,-99.99,,,0.15,0,weatherlink.com 1.10,2013-07-04 03:46:00,